| time (UTC) | temp F | wind direction | speed MPH | gust MPH | rain 1hr in | rain 24hr in | rain mn in | humidity % | barometer mb |
| 20260510231001 | 53 | 302 | 1.0 | 1.0 | 0.00 | 0.15 | 0.15 | 99 | 1010.0 |
| 20260510230456 | 53 | 301 | 1.0 | 2.0 | 0.00 | 0.15 | 0.15 | 99 | 1009.8 |
| 20260510225953 | 53 | 307 | 1.0 | 1.0 | 0.00 | 0.15 | 0.15 | 99 | 1009.9 |
| 20260510225450 | 53 | 308 | 1.0 | 1.0 | 0.00 | 0.15 | 0.15 | 99 | 1009.6 |
| 20260510224945 | 54 | 309 | 1.0 | 1.0 | 0.00 | 0.15 | 0.15 | 99 | 1009.6 |
| 20260510224442 | 54 | 307 | 2.0 | 2.0 | 0.00 | 0.15 | 0.15 | 99 | 1009.5 |
| 20260510223938 | 54 | 300 | 2.0 | 2.0 | 0.00 | 0.15 | 0.15 | 99 | 1009.4 |
| 20260510223436 | 55 | 304 | 1.0 | 1.0 | 0.00 | 0.15 | 0.15 | 99 | 1009.3 |
| 20260510222933 | 55 | 303 | 1.0 | 1.0 | 0.00 | 0.15 | 0.15 | 99 | 1009.3 |
| 20260510222431 | 55 | 273 | 3.0 | 3.0 | 0.00 | 0.15 | 0.15 | 99 | 1009.5 |
| 20260510221926 | 55 | 304 | 1.0 | 1.0 | 0.00 | 0.15 | 0.15 | 99 | 1009.3 |
| 20260510221422 | 56 | 309 | 2.0 | 2.0 | 0.00 | 0.15 | 0.15 | 99 | 1009.3 |
| 20260510220919 | 56 | 302 | 1.0 | 1.0 | 0.00 | 0.15 | 0.15 | 99 | 1009.2 |
| 20260510220415 | 57 | 307 | 2.0 | 2.0 | 0.00 | 0.15 | 0.15 | 99 | 1009.4 |
| 20260510215911 | 57 | 303 | 2.0 | 2.0 | 0.00 | 0.15 | 0.15 | 99 | 1009.4 |
| 20260510215409 | 58 | 306 | 1.0 | 1.0 | 0.00 | 0.15 | 0.15 | 99 | 1009.5 |
| 20260510214907 | 58 | 295 | 1.0 | 1.0 | 0.00 | 0.15 | 0.15 | 99 | 1009.5 |
| 20260510214403 | 58 | 312 | 0.0 | 0.0 | 0.00 | 0.15 | 0.15 | 99 | 1009.5 |
| 20260510213900 | 57 | 310 | 1.0 | 1.0 | 0.00 | 0.15 | 0.15 | 99 | 1009.5 |
| 20260510213356 | 57 | 310 | 0.0 | 0.0 | 0.00 | 0.15 | 0.15 | 99 | 1009.5 |
| 20260510212847 | 57 | 311 | 0.0 | 1.0 | 0.00 | 0.15 | 0.15 | 99 | 1009.6 |
| 20260510212344 | 57 | 312 | 2.0 | 2.0 | 0.00 | 0.15 | 0.15 | 99 | 1009.5 |
| 20260510211842 | 57 | 302 | 2.0 | 2.0 | 0.00 | 0.15 | 0.15 | 99 | 1009.7 |
| 20260510211337 | 57 | 310 | 1.0 | 1.0 | 0.00 | 0.15 | 0.15 | 99 | 1009.3 |
| 20260510210832 | 56 | 307 | 1.0 | 1.0 | 0.00 | 0.15 | 0.15 | 99 | 1009.3 |
| 20260510210328 | 56 | 305 | 1.0 | 1.0 | 0.00 | 0.15 | 0.15 | 99 | 1009.1 |
| 20260510205822 | 56 | 310 | 0.0 | 1.0 | 0.00 | 0.15 | 0.15 | 99 | 1009.3 |
| 20260510205318 | 56 | 310 | 0.0 | 1.0 | 0.00 | 0.15 | 0.15 | 99 | 1009.2 |
| 20260510204814 | 56 | 311 | 1.0 | 1.0 | 0.00 | 0.15 | 0.15 | 99 | 1009.3 |
| 20260510204310 | 56 | 305 | 1.0 | 1.0 | 0.00 | 0.15 | 0.15 | 99 | 1009.3 |
| 20260510203807 | 55 | 311 | 0.0 | 0.0 | 0.05 | 0.15 | 0.15 | 99 | 1009.8 |
| 20260510203305 | 56 | 311 | 0.0 | 0.0 | 0.17 | 0.15 | 0.15 | 99 | 1009.8 |
| 20260510202804 | 55 | 311 | 0.0 | 0.0 | 0.19 | 0.14 | 0.14 | 99 | 1009.9 |
| 20260510202301 | 55 | 312 | 0.0 | 0.0 | 0.24 | 0.12 | 0.12 | 99 | 1009.8 |
| 20260510201757 | 56 | 317 | 1.0 | 1.0 | 0.59 | 0.11 | 0.11 | 98 | 1009.7 |
| 20260510201254 | 56 | 309 | 0.0 | 1.0 | 0.54 | 0.09 | 0.09 | 97 | 1009.9 |
| 20260510200751 | 56 | 324 | 1.0 | 1.0 | 0.07 | 0.01 | 0.01 | 95 | 1010.2 |
| 20260510200249 | 56 | 300 | 1.0 | 1.0 | 0.00 | 0.00 | 0.00 | 94 | 1010.0 |
| 20260510195745 | 56 | 301 | 2.0 | 2.0 | 0.00 | 0.00 | 0.00 | 94 | 1009.3 |
| 20260510195242 | 57 | 313 | 0.0 | 1.0 | 0.00 | 0.00 | 0.00 | 93 | 1009.2 |
| 20260510194741 | 57 | 308 | 0.0 | 1.0 | 0.00 | 0.00 | 0.00 | 92 | 1009.2 |
| 20260510194238 | 57 | 340 | 1.0 | 2.0 | 0.00 | 0.00 | 0.00 | 92 | 1009.1 |
| 20260510193734 | 57 | 312 | 1.0 | 1.0 | 0.00 | 0.00 | 0.00 | 92 | 1008.8 |
| 20260510193228 | 57 | 310 | 2.0 | 2.0 | 0.00 | 0.00 | 0.00 | 92 | 1009.0 |
| 20260510192724 | 57 | 310 | 1.0 | 1.0 | 0.00 | 0.00 | 0.00 | 92 | 1009.2 |
| 20260510192220 | 57 | 284 | 4.0 | 6.0 | 0.00 | 0.00 | 0.00 | 92 | 1009.3 |
| 20260510191716 | 57 | 311 | 1.0 | 1.0 | 0.00 | 0.00 | 0.00 | 93 | 1009.3 |
| 20260510191213 | 57 | 316 | 3.0 | 3.0 | 0.00 | 0.00 | 0.00 | 92 | 1009.3 |
| 20260510190710 | 57 | 311 | 1.0 | 1.0 | 0.00 | 0.00 | 0.00 | 92 | 1009.1 |
| 20260510190207 | 57 | 315 | 1.0 | 1.0 | 0.00 | 0.00 | 0.00 | 92 | 1009.3 |
| 20260510185704 | 57 | 312 | 2.0 | 2.0 | 0.00 | 0.00 | 0.00 | 93 | 1009.5 |
| 20260510185203 | 57 | 311 | 2.0 | 3.0 | 0.00 | 0.00 | 0.00 | 92 | 1009.4 |
| 20260510184658 | 57 | 311 | 0.0 | 1.0 | 0.00 | 0.00 | 0.00 | 92 | 1009.4 |
| 20260510184155 | 57 | 297 | 3.0 | 5.0 | 0.00 | 0.00 | 0.00 | 93 | 1009.6 |
| 20260510183650 | 56 | 7 | 3.0 | 5.0 | 0.00 | 0.00 | 0.00 | 92 | 1009.7 |
| 20260510183145 | 56 | 310 | 1.0 | 1.0 | 0.00 | 0.00 | 0.00 | 92 | 1009.9 |
| 20260510182642 | 57 | 298 | 2.0 | 2.0 | 0.00 | 0.00 | 0.00 | 91 | 1009.9 |
| 20260510182137 | 58 | 309 | 2.0 | 2.0 | 0.00 | 0.00 | 0.00 | 91 | 1010.1 |
| 20260510181635 | 57 | 306 | 2.0 | 2.0 | 0.00 | 0.00 | 0.00 | 90 | 1009.9 |
| 20260510181131 | 59 | 312 | 0.0 | 1.0 | 0.00 | 0.00 | 0.00 | 88 | 1010.1 |
| 20260510180627 | 57 | 306 | 1.0 | 1.0 | 0.00 | 0.00 | 0.00 | 91 | 1010.1 |
| 20260510180125 | 57 | 321 | 2.0 | 2.0 | 0.00 | 0.00 | 0.00 | 91 | 1010.1 |
| 20260510175621 | 57 | 304 | 1.0 | 1.0 | 0.00 | 0.00 | 0.00 | 90 | 1010.1 |
| 20260510175116 | 57 | 311 | 1.0 | 2.0 | 0.00 | 0.00 | 0.00 | 89 | 1010.3 |
| 20260510174615 | 58 | 309 | 3.0 | 3.0 | 0.00 | 0.00 | 0.00 | 88 | 1010.3 |
| 20260510174112 | 58 | 308 | 2.0 | 2.0 | 0.00 | 0.00 | 0.00 | 87 | 1010.2 |
| 20260510173607 | 59 | 311 | 1.0 | 1.0 | 0.00 | 0.00 | 0.00 | 86 | 1010.2 |
| 20260510173104 | 59 | 310 | 1.0 | 2.0 | 0.00 | 0.00 | 0.00 | 87 | 1010.2 |
| 20260510172600 | 59 | 317 | 1.0 | 2.0 | 0.00 | 0.00 | 0.00 | 87 | 1010.2 |
| 20260510172056 | 59 | 319 | 2.0 | 3.0 | 0.00 | 0.00 | 0.00 | 86 | 1010.2 |
| 20260510171553 | 59 | 311 | 0.0 | 1.0 | 0.00 | 0.00 | 0.00 | 89 | 1010.3 |
| 20260510171050 | 58 | 7 | 3.0 | 3.0 | 0.00 | 0.00 | 0.00 | 87 | 1010.1 |
| 20260510170546 | 58 | 303 | 1.0 | 2.0 | 0.00 | 0.00 | 0.00 | 88 | 1010.2 |
| 20260510170043 | 58 | 310 | 2.0 | 2.0 | 0.00 | 0.00 | 0.00 | 88 | 1010.2 |
| 20260510165539 | 58 | 308 | 0.0 | 1.0 | 0.00 | 0.00 | 0.00 | 88 | 1010.3 |
| 20260510165035 | 58 | 34 | 2.0 | 3.0 | 0.00 | 0.00 | 0.00 | 88 | 1010.2 |
| 20260510164532 | 58 | 291 | 1.0 | 1.0 | 0.00 | 0.00 | 0.00 | 88 | 1010.1 |
| 20260510164029 | 58 | 302 | 3.0 | 3.0 | 0.00 | 0.00 | 0.00 | 88 | 1010.4 |
| 20260510163524 | 58 | 308 | 2.0 | 2.0 | 0.00 | 0.00 | 0.00 | 88 | 1010.5 |
| 20260510163021 | 59 | 319 | 3.0 | 3.0 | 0.00 | 0.00 | 0.00 | 87 | 1010.2 |
| 20260510162516 | 59 | 301 | 3.0 | 3.0 | 0.00 | 0.00 | 0.00 | 87 | 1010.3 |
| 20260510162013 | 61 | 297 | 1.0 | 2.0 | 0.00 | 0.00 | 0.00 | 85 | 1010.2 |
| 20260510161509 | 60 | 309 | 1.0 | 1.0 | 0.00 | 0.00 | 0.00 | 86 | 1010.4 |
| 20260510161005 | 60 | 308 | 2.0 | 2.0 | 0.00 | 0.00 | 0.00 | 86 | 1010.2 |
| 20260510160457 | 60 | 307 | 1.0 | 2.0 | 0.00 | 0.00 | 0.00 | 85 | 1010.5 |
| 20260510155954 | 59 | 307 | 1.0 | 1.0 | 0.00 | 0.00 | 0.00 | 88 | 1010.5 |
| 20260510155447 | 59 | 309 | 1.0 | 1.0 | 0.00 | 0.00 | 0.00 | 86 | 1010.3 |
| 20260510154943 | 60 | 303 | 1.0 | 2.0 | 0.00 | 0.00 | 0.00 | 86 | 1010.3 |
| 20260510154438 | 59 | 341 | 3.0 | 3.0 | 0.00 | 0.00 | 0.00 | 86 | 1010.5 |
| 20260510153932 | 58 | 308 | 0.0 | 1.0 | 0.00 | 0.00 | 0.00 | 89 | 1010.6 |
| 20260510153429 | 58 | 314 | 1.0 | 1.0 | 0.00 | 0.00 | 0.00 | 88 | 1010.8 |
| 20260510152926 | 58 | 310 | 1.0 | 1.0 | 0.00 | 0.00 | 0.00 | 89 | 1010.8 |
| 20260510152423 | 58 | 311 | 1.0 | 1.0 | 0.00 | 0.00 | 0.00 | 89 | 1010.8 |
| 20260510151919 | 58 | 289 | 1.0 | 1.0 | 0.00 | 0.00 | 0.00 | 90 | 1010.6 |
| 20260510151417 | 57 | 299 | 2.0 | 3.0 | 0.00 | 0.00 | 0.00 | 91 | 1010.8 |
| 20260510150913 | 56 | 307 | 2.0 | 2.0 | 0.00 | 0.00 | 0.00 | 92 | 1010.8 |
| 20260510150409 | 56 | 309 | 0.0 | 1.0 | 0.00 | 0.00 | 0.00 | 93 | 1010.7 |
| 20260510145905 | 57 | 325 | 0.0 | 1.0 | 0.00 | 0.00 | 0.00 | 93 | 1010.6 |
| 20260510145401 | 56 | 304 | 1.0 | 1.0 | 0.00 | 0.00 | 0.00 | 94 | 1010.9 |
| 20260510144858 | 55 | 300 | 3.0 | 3.0 | 0.00 | 0.00 | 0.00 | 94 | 1010.8 |
| 20260510144355 | 56 | 307 | 2.0 | 2.0 | 0.00 | 0.00 | 0.00 | 93 | 1010.5 |
| 20260510143849 | 56 | 302 | 2.0 | 2.0 | 0.00 | 0.00 | 0.00 | 93 | 1010.7 |
| 20260510143346 | 56 | 311 | 1.0 | 1.0 | 0.00 | 0.00 | 0.00 | 95 | 1010.9 |
| 20260510142843 | 55 | 312 | 1.0 | 2.0 | 0.00 | 0.00 | 0.00 | 95 | 1010.7 |
| 20260510142339 | 55 | 311 | 1.0 | 2.0 | 0.00 | 0.00 | 0.00 | 95 | 1010.7 |
| 20260510141836 | 55 | 312 | 0.0 | 1.0 | 0.00 | 0.00 | 0.00 | 94 | 1010.9 |
| 20260510141333 | 55 | 317 | 1.0 | 2.0 | 0.00 | 0.00 | 0.00 | 95 | 1010.5 |
| 20260510140831 | 55 | 307 | 1.0 | 1.0 | 0.00 | 0.00 | 0.00 | 94 | 1010.9 |
| 20260510140326 | 57 | 288 | 2.0 | 2.0 | 0.00 | 0.00 | 0.00 | 95 | 1010.7 |
| 20260510135819 | 56 | 315 | 0.0 | 1.0 | 0.00 | 0.00 | 0.00 | 98 | 1010.4 |
| 20260510135316 | 55 | 305 | 1.0 | 1.0 | 0.00 | 0.00 | 0.00 | 99 | 1010.6 |
| 20260510134814 | 54 | 312 | 1.0 | 1.0 | 0.00 | 0.00 | 0.00 | 99 | 1010.7 |
| 20260510134310 | 54 | 315 | 0.0 | 1.0 | 0.00 | 0.00 | 0.00 | 99 | 1010.8 |
| 20260510133806 | 53 | 311 | 0.0 | 0.0 | 0.00 | 0.00 | 0.00 | 99 | 1010.5 |
| 20260510133302 | 53 | 305 | 0.0 | 0.0 | 0.00 | 0.00 | 0.00 | 99 | 1010.6 |
| 20260510132758 | 53 | 314 | 0.0 | 0.0 | 0.00 | 0.00 | 0.00 | 99 | 1010.8 |
| 20260510132256 | 53 | 309 | 0.0 | 0.0 | 0.00 | 0.00 | 0.00 | 99 | 1010.9 |
| 20260510131753 | 52 | 330 | 1.0 | 2.0 | 0.00 | 0.00 | 0.00 | 99 | 1010.9 |
| 20260510131251 | 52 | 317 | 1.0 | 2.0 | 0.00 | 0.00 | 0.00 | 99 | 1011.0 |
| 20260510130747 | 52 | 329 | 1.0 | 2.0 | 0.00 | 0.00 | 0.00 | 99 | 1010.9 |
| 20260510130244 | 52 | 304 | 0.0 | 1.0 | 0.00 | 0.00 | 0.00 | 99 | 1010.6 |
| 20260510125740 | 52 | 309 | 0.0 | 0.0 | 0.00 | 0.00 | 0.00 | 99 | 1010.9 |
| 20260510125236 | 52 | 311 | 0.0 | 0.0 | 0.00 | 0.00 | 0.00 | 99 | 1011.0 |
| 20260510124733 | 51 | 321 | 0.0 | 0.0 | 0.00 | 0.00 | 0.00 | 99 | 1011.0 |
| 20260510124231 | 51 | 309 | 0.0 | 1.0 | 0.00 | 0.00 | 0.00 | 99 | 1011.1 |
| 20260510123726 | 51 | 319 | 1.0 | 2.0 | 0.00 | 0.00 | 0.00 | 99 | 1010.9 |
| 20260510123222 | 51 | 324 | 0.0 | 1.0 | 0.00 | 0.00 | 0.00 | 99 | 1010.8 |
| 20260510122718 | 51 | 319 | 2.0 | 3.0 | 0.00 | 0.00 | 0.00 | 99 | 1010.9 |
| 20260510122215 | 51 | 320 | 0.0 | 1.0 | 0.00 | 0.00 | 0.00 | 99 | 1010.8 |
| 20260510121711 | 50 | 322 | 0.0 | 0.0 | 0.00 | 0.00 | 0.00 | 99 | 1010.7 |
| 20260510121209 | 50 | 298 | 0.0 | 0.0 | 0.00 | 0.00 | 0.00 | 99 | 1010.5 |
| 20260510120706 | 51 | 321 | 1.0 | 1.0 | 0.00 | 0.00 | 0.00 | 99 | 1010.8 |
| 20260510120202 | 51 | 310 | 0.0 | 1.0 | 0.00 | 0.00 | 0.00 | 99 | 1011.0 |
| 20260510115658 | 50 | 324 | 1.0 | 1.0 | 0.00 | 0.00 | 0.00 | 99 | 1010.9 |
| 20260510115156 | 50 | 334 | 1.0 | 1.0 | 0.00 | 0.00 | 0.00 | 99 | 1010.5 |
| 20260510114651 | 50 | 307 | 0.0 | 0.0 | 0.00 | 0.00 | 0.00 | 99 | 1010.4 |
| 20260510114148 | 50 | 320 | 1.0 | 2.0 | 0.00 | 0.00 | 0.00 | 99 | 1010.2 |
| 20260510113643 | 50 | 313 | 1.0 | 2.0 | 0.00 | 0.00 | 0.00 | 99 | 1010.2 |
| 20260510113141 | 50 | 318 | 0.0 | 0.0 | 0.00 | 0.00 | 0.00 | 99 | 1010.2 |
| 20260510112637 | 50 | 328 | 1.0 | 1.0 | 0.00 | 0.00 | 0.00 | 99 | 1010.6 |
| 20260510112134 | 49 | 310 | 0.0 | 0.0 | 0.00 | 0.00 | 0.00 | 99 | 1010.4 |
| 20260510111630 | 49 | 307 | 0.0 | 0.0 | 0.00 | 0.00 | 0.00 | 99 | 1010.4 |
| 20260510111126 | 49 | 359 | 3.0 | 3.0 | 0.00 | 0.00 | 0.00 | 99 | 1010.0 |
| 20260510110622 | 49 | 350 | 2.0 | 2.0 | 0.00 | 0.00 | 0.00 | 99 | 1009.7 |
| 20260510110119 | 49 | 322 | 0.0 | 1.0 | 0.00 | 0.00 | 0.00 | 99 | 1009.9 |
| 20260510105615 | 48 | 349 | 1.0 | 2.0 | 0.00 | 0.00 | 0.00 | 99 | 1010.2 |
| 20260510105109 | 48 | 316 | 0.0 | 0.0 | 0.00 | 0.00 | 0.00 | 99 | 1010.0 |
| 20260510104606 | 48 | 311 | 0.0 | 1.0 | 0.00 | 0.00 | 0.00 | 99 | 1010.1 |
| 20260510104103 | 48 | 315 | 0.0 | 0.0 | 0.00 | 0.00 | 0.00 | 99 | 1009.9 |
| 20260510103600 | 49 | 315 | 0.0 | 0.0 | 0.00 | 0.00 | 0.00 | 99 | 1009.7 |
| 20260510103056 | 48 | 313 | 0.0 | 0.0 | 0.00 | 0.00 | 0.00 | 99 | 1009.7 |
| 20260510102551 | 48 | 320 | 1.0 | 1.0 | 0.00 | 0.00 | 0.00 | 99 | 1010.0 |
| 20260510102048 | 48 | 337 | 1.0 | 1.0 | 0.00 | 0.00 | 0.00 | 99 | 1009.8 |
| 20260510101546 | 48 | 309 | 1.0 | 1.0 | 0.00 | 0.00 | 0.00 | 99 | 1009.5 |
| 20260510101044 | 49 | 291 | 0.0 | 2.0 | 0.00 | 0.00 | 0.00 | 99 | 1009.4 |
| 20260510100539 | 49 | 311 | 0.0 | 0.0 | 0.00 | 0.00 | 0.00 | 99 | 1009.6 |
| 20260510100037 | 48 | 315 | 0.0 | 0.0 | 0.00 | 0.00 | 0.00 | 99 | 1009.8 |
| 20260510095533 | 48 | 310 | 0.0 | 0.0 | 0.00 | 0.00 | 0.00 | 99 | 1009.6 |
| 20260510095032 | 48 | 311 | 0.0 | 0.0 | 0.00 | 0.00 | 0.00 | 99 | 1009.6 |
| 20260510094527 | 48 | 309 | 0.0 | 0.0 | 0.00 | 0.00 | 0.00 | 99 | 1009.4 |
| 20260510094023 | 48 | 313 | 0.0 | 0.0 | 0.00 | 0.00 | 0.00 | 99 | 1009.6 |
| 20260510093519 | 48 | 315 | 0.0 | 0.0 | 0.00 | 0.00 | 0.00 | 99 | 1009.7 |
| 20260510093016 | 48 | 317 | 0.0 | 0.0 | 0.00 | 0.00 | 0.00 | 99 | 1009.5 |
| 20260510092513 | 48 | 316 | 0.0 | 0.0 | 0.00 | 0.00 | 0.00 | 99 | 1009.5 |
| 20260510092012 | 49 | 311 | 0.0 | 0.0 | 0.00 | 0.00 | 0.00 | 99 | 1009.7 |
| 20260510091509 | 48 | 333 | 1.0 | 1.0 | 0.00 | 0.00 | 0.00 | 99 | 1009.4 |
| 20260510091005 | 48 | 320 | 1.0 | 1.0 | 0.00 | 0.00 | 0.00 | 99 | 1009.6 |
| 20260510090503 | 48 | 302 | 0.0 | 0.0 | 0.00 | 0.00 | 0.00 | 99 | 1009.7 |
| 20260510085958 | 48 | 316 | 0.0 | 0.0 | 0.00 | 0.00 | 0.00 | 99 | 1009.6 |
| 20260510085453 | 48 | 316 | 0.0 | 0.0 | 0.00 | 0.00 | 0.00 | 99 | 1009.6 |
| 20260510084949 | 48 | 314 | 0.0 | 0.0 | 0.00 | 0.00 | 0.00 | 99 | 1009.6 |
| 20260510084446 | 49 | 326 | 1.0 | 2.0 | 0.00 | 0.00 | 0.00 | 99 | 1009.3 |
| 20260510083943 | 48 | 331 | 0.0 | 1.0 | 0.00 | 0.00 | 0.00 | 99 | 1009.1 |
| 20260510083439 | 48 | 313 | 0.0 | 0.0 | 0.00 | 0.00 | 0.00 | 99 | 1008.9 |
| 20260510082934 | 49 | 308 | 0.0 | 0.0 | 0.00 | 0.00 | 0.00 | 99 | 1009.2 |
| 20260510082433 | 49 | 311 | 0.0 | 0.0 | 0.00 | 0.00 | 0.00 | 99 | 1009.3 |
| 20260510081932 | 49 | 311 | 0.0 | 0.0 | 0.00 | 0.00 | 0.00 | 99 | 1009.5 |
| 20260510081428 | 49 | 305 | 0.0 | 0.0 | 0.00 | 0.00 | 0.00 | 99 | 1009.7 |
| 20260510080924 | 49 | 312 | 0.0 | 0.0 | 0.00 | 0.00 | 0.00 | 99 | 1009.5 |
| 20260510080423 | 49 | 314 | 0.0 | 0.0 | 0.00 | 0.00 | 0.00 | 99 | 1009.4 |
| 20260510075920 | 49 | 326 | 1.0 | 1.0 | 0.00 | 0.00 | 0.00 | 99 | 1009.7 |
| 20260510075418 | 49 | 322 | 1.0 | 1.0 | 0.00 | 0.00 | 0.00 | 99 | 1009.5 |
| 20260510074914 | 49 | 321 | 0.0 | 1.0 | 0.00 | 0.00 | 0.00 | 99 | 1009.6 |
| 20260510074412 | 49 | 314 | 0.0 | 0.0 | 0.00 | 0.00 | 0.00 | 99 | 1009.4 |
| 20260510073908 | 48 | 318 | 0.0 | 1.0 | 0.00 | 0.00 | 0.00 | 99 | 1009.2 |
| 20260510073403 | 48 | 306 | 1.0 | 1.0 | 0.00 | 0.00 | 0.00 | 99 | 1009.3 |
| 20260510072900 | 48 | 314 | 0.0 | 0.0 | 0.00 | 0.00 | 0.00 | 99 | 1009.2 |
| 20260510072357 | 48 | 309 | 0.0 | 0.0 | 0.00 | 0.00 | 0.00 | 99 | 1009.4 |
| 20260510071853 | 48 | 311 | 0.0 | 0.0 | 0.00 | 0.00 | 0.00 | 99 | 1009.0 |
| 20260510071349 | 48 | 300 | 1.0 | 1.0 | 0.00 | 0.00 | 0.00 | 99 | 1009.4 |
| 20260510070848 | 48 | 311 | 0.0 | 0.0 | 0.00 | 0.00 | 0.00 | 99 | 1009.5 |
| 20260510070344 | 48 | 313 | 0.0 | 0.0 | 0.00 | 0.00 | 0.00 | 99 | 1009.4 |
| 20260510065839 | 48 | 313 | 0.0 | 0.0 | 0.00 | 0.00 | 0.00 | 99 | 1009.6 |
| 20260510065336 | 49 | 311 | 0.0 | 0.0 | 0.00 | 0.00 | 0.00 | 99 | 1009.3 |
| 20260510064833 | 48 | 310 | 0.0 | 0.0 | 0.00 | 0.00 | 0.00 | 99 | 1009.7 |
| 20260510064331 | 49 | 314 | 0.0 | 0.0 | 0.00 | 0.00 | 0.00 | 99 | 1009.7 |
| 20260510063826 | 49 | 313 | 0.0 | 0.0 | 0.00 | 0.00 | 0.00 | 99 | 1009.9 |
| 20260510063323 | 49 | 335 | 0.0 | 0.0 | 0.00 | 0.00 | 0.00 | 99 | 1009.8 |
| 20260510062820 | 49 | 309 | 0.0 | 0.0 | 0.00 | 0.00 | 0.00 | 99 | 1009.9 |
| 20260510062315 | 49 | 313 | 0.0 | 0.0 | 0.00 | 0.00 | 0.00 | 99 | 1010.0 |
| 20260510061810 | 49 | 326 | 1.0 | 1.0 | 0.00 | 0.00 | 0.00 | 99 | 1010.2 |
| 20260510061308 | 49 | 320 | 0.0 | 0.0 | 0.00 | 0.00 | 0.00 | 99 | 1010.2 |
| 20260510060804 | 49 | 313 | 0.0 | 0.0 | 0.00 | 0.00 | 0.00 | 99 | 1009.9 |
| 20260510060256 | 49 | 314 | 0.0 | 1.0 | 0.00 | 0.00 | 0.00 | 99 | 1010.1 |
| 20260510055752 | 49 | 316 | 0.0 | 0.0 | 0.00 | 0.00 | 0.00 | 99 | 1010.1 |
| 20260510055251 | 49 | 313 | 0.0 | 0.0 | 0.00 | 0.00 | 0.00 | 99 | 1010.3 |
| 20260510054750 | 48 | 322 | 1.0 | 1.0 | 0.00 | 0.00 | 0.00 | 99 | 1010.1 |
| 20260510054247 | 48 | 309 | 0.0 | 0.0 | 0.00 | 0.00 | 0.00 | 99 | 1010.3 |
| 20260510053746 | 48 | 309 | 1.0 | 1.0 | 0.00 | 0.00 | 0.00 | 99 | 1010.4 |
| 20260510053242 | 48 | 311 | 0.0 | 0.0 | 0.00 | 0.00 | 0.00 | 99 | 1010.4 |
| 20260510052738 | 49 | 314 | 0.0 | 0.0 | 0.00 | 0.00 | 0.00 | 99 | 1010.5 |
| 20260510052234 | 49 | 316 | 0.0 | 0.0 | 0.00 | 0.00 | 0.00 | 99 | 1010.5 |
| 20260510051730 | 49 | 324 | 1.0 | 1.0 | 0.00 | 0.00 | 0.00 | 99 | 1010.5 |
| 20260510051227 | 49 | 321 | 1.0 | 2.0 | 0.00 | 0.00 | 0.00 | 99 | 1010.4 |
| 20260510050724 | 49 | 316 | 0.0 | 0.0 | 0.00 | 0.00 | 0.00 | 99 | 1010.3 |
| 20260510050222 | 48 | 335 | 1.0 | 1.0 | 0.00 | 0.00 | 0.00 | 99 | 1010.4 |
| 20260510045718 | 48 | 309 | 0.0 | 0.0 | 0.00 | 0.00 | 0.00 | 99 | 1010.3 |
| 20260510045215 | 48 | 306 | 0.0 | 0.0 | 0.00 | 0.00 | 0.00 | 99 | 1010.2 |
| 20260510044711 | 48 | 309 | 0.0 | 0.0 | 0.00 | 0.00 | 0.00 | 99 | 1010.4 |
| 20260510044210 | 48 | 307 | 0.0 | 0.0 | 0.00 | 0.00 | 0.00 | 99 | 1010.4 |
| 20260510043704 | 48 | 304 | 0.0 | 0.0 | 0.00 | 0.00 | 0.00 | 99 | 1010.7 |
| 20260510043201 | 48 | 314 | 0.0 | 0.0 | 0.00 | 0.00 | 0.00 | 99 | 1010.5 |
| 20260510042658 | 48 | 311 | 0.0 | 0.0 | 0.00 | 0.00 | 0.00 | 99 | 1010.7 |
| 20260510042154 | 48 | 314 | 0.0 | 0.0 | 0.00 | 0.00 | 0.00 | 99 | 1010.6 |
| 20260510041652 | 47 | 311 | 0.0 | 0.0 | 0.00 | 0.00 | 0.00 | 99 | 1010.8 |
| 20260510041149 | 47 | 311 | 0.0 | 0.0 | 0.00 | 0.00 | 0.00 | 99 | 1010.9 |
| 20260510040646 | 47 | 313 | 0.0 | 0.0 | 0.00 | 0.00 | 0.00 | 99 | 1010.7 |
| 20260510040143 | 47 | 311 | 0.0 | 0.0 | 0.00 | 0.00 | 0.00 | 99 | 1010.6 |
| 20260510035638 | 47 | 311 | 0.0 | 0.0 | 0.00 | 0.42 | 0.42 | 99 | 1010.8 |
| 20260510035133 | 47 | 311 | 0.0 | 0.0 | 0.00 | 0.42 | 0.42 | 99 | 1010.7 |
| 20260510034630 | 47 | 311 | 0.0 | 0.0 | 0.00 | 0.42 | 0.42 | 99 | 1010.9 |
| 20260510034127 | 47 | 309 | 0.0 | 0.0 | 0.00 | 0.42 | 0.42 | 99 | 1011.0 |
| 20260510033624 | 47 | 309 | 0.0 | 0.0 | 0.00 | 0.42 | 0.42 | 99 | 1011.2 |
| 20260510033121 | 47 | 306 | 0.0 | 1.0 | 0.00 | 0.42 | 0.42 | 99 | 1011.0 |
| 20260510032618 | 47 | 308 | 1.0 | 1.0 | 0.00 | 0.42 | 0.42 | 99 | 1011.1 |
| 20260510032113 | 47 | 310 | 0.0 | 0.0 | 0.00 | 0.42 | 0.42 | 99 | 1011.1 |
| 20260510031608 | 46 | 310 | 0.0 | 0.0 | 0.00 | 0.42 | 0.42 | 99 | 1011.2 |
| 20260510031105 | 46 | 309 | 0.0 | 0.0 | 0.00 | 0.42 | 0.42 | 99 | 1011.3 |
| 20260510030600 | 46 | 309 | 0.0 | 0.0 | 0.00 | 0.42 | 0.42 | 99 | 1011.2 |
| 20260510030057 | 46 | 311 | 0.0 | 0.0 | 0.00 | 0.42 | 0.42 | 99 | 1011.2 |
| 20260510025554 | 46 | 311 | 0.0 | 0.0 | 0.00 | 0.42 | 0.42 | 99 | 1011.1 |
| 20260510025052 | 46 | 309 | 0.0 | 0.0 | 0.00 | 0.42 | 0.42 | 99 | 1011.2 |
| 20260510024548 | 46 | 311 | 0.0 | 0.0 | 0.00 | 0.42 | 0.42 | 99 | 1011.2 |
| 20260510024045 | 46 | 309 | 0.0 | 0.0 | 0.00 | 0.42 | 0.42 | 99 | 1011.3 |
| 20260510023541 | 46 | 313 | 0.0 | 0.0 | 0.00 | 0.42 | 0.42 | 99 | 1011.3 |
| 20260510023039 | 46 | 315 | 0.0 | 0.0 | 0.00 | 0.42 | 0.42 | 99 | 1011.1 |
| 20260510022537 | 46 | 311 | 0.0 | 0.0 | 0.00 | 0.42 | 0.42 | 99 | 1011.3 |
| 20260510022031 | 46 | 314 | 0.0 | 0.0 | 0.00 | 0.42 | 0.42 | 99 | 1011.2 |
| 20260510021523 | 46 | 312 | 0.0 | 0.0 | 0.00 | 0.42 | 0.42 | 99 | 1011.2 |
| 20260510021021 | 46 | 311 | 0.0 | 0.0 | 0.00 | 0.42 | 0.42 | 99 | 1011.3 |
| 20260510020515 | 46 | 309 | 0.0 | 0.0 | 0.00 | 0.42 | 0.42 | 99 | 1011.2 |
| 20260510020011 | 46 | 311 | 0.0 | 0.0 | 0.00 | 0.42 | 0.42 | 99 | 1011.4 |
| 20260510015506 | 46 | 306 | 0.0 | 0.0 | 0.00 | 0.42 | 0.42 | 99 | 1011.4 |
| 20260510015003 | 46 | 296 | 0.0 | 0.0 | 0.00 | 0.42 | 0.42 | 99 | 1011.4 |
| 20260510014500 | 46 | 313 | 0.0 | 0.0 | 0.00 | 0.42 | 0.42 | 99 | 1011.4 |
| 20260510013956 | 46 | 311 | 0.0 | 0.0 | 0.00 | 0.42 | 0.42 | 99 | 1011.3 |
| 20260510013451 | 46 | 313 | 0.0 | 0.0 | 0.00 | 0.42 | 0.42 | 99 | 1011.3 |
| 20260510012947 | 46 | 312 | 0.0 | 0.0 | 0.00 | 0.42 | 0.42 | 99 | 1011.3 |
| 20260510012442 | 46 | 313 | 0.0 | 0.0 | 0.00 | 0.42 | 0.42 | 99 | 1011.3 |
| 20260510011937 | 46 | 313 | 0.0 | 0.0 | 0.00 | 0.42 | 0.42 | 99 | 1011.2 |
| 20260510011432 | 46 | 308 | 0.0 | 0.0 | 0.00 | 0.42 | 0.42 | 99 | 1011.0 |
| 20260510010928 | 46 | 314 | 0.0 | 0.0 | 0.00 | 0.42 | 0.42 | 99 | 1011.0 |
| 20260510010426 | 46 | 311 | 0.0 | 0.0 | 0.00 | 0.42 | 0.42 | 99 | 1011.0 |
| 20260510005922 | 46 | 311 | 0.0 | 0.0 | 0.00 | 0.42 | 0.42 | 99 | 1011.1 |
| 20260510005418 | 46 | 308 | 0.0 | 0.0 | 0.00 | 0.42 | 0.42 | 99 | 1010.9 |
| 20260510004916 | 46 | 309 | 0.0 | 0.0 | 0.00 | 0.42 | 0.42 | 99 | 1011.0 |
| 20260510004413 | 46 | 307 | 0.0 | 0.0 | 0.00 | 0.42 | 0.42 | 99 | 1011.1 |
| 20260510003911 | 46 | 313 | 0.0 | 0.0 | 0.00 | 0.42 | 0.42 | 99 | 1010.9 |
| 20260510003408 | 46 | 292 | 1.0 | 2.0 | 0.00 | 0.42 | 0.42 | 99 | 1010.8 |
| 20260510002907 | 46 | 293 | 1.0 | 1.0 | 0.00 | 0.42 | 0.42 | 99 | 1010.9 |
| 20260510002404 | 45 | 295 | 1.0 | 2.0 | 0.00 | 0.42 | 0.42 | 99 | 1011.0 |
| 20260510001901 | 45 | 296 | 1.0 | 1.0 | 0.00 | 0.42 | 0.42 | 99 | 1011.1 |
| 20260510001358 | 45 | 308 | 0.0 | 0.0 | 0.00 | 0.42 | 0.42 | 99 | 1011.3 |
| 20260510000855 | 45 | 308 | 0.0 | 0.0 | 0.00 | 0.42 | 0.42 | 99 | 1011.5 |
| 20260510000351 | 45 | 311 | 0.0 | 0.0 | 0.00 | 0.42 | 0.42 | 99 | 1011.4 |
| 20260509235848 | 45 | 315 | 0.0 | 0.0 | 0.00 | 0.42 | 0.42 | 99 | 1011.3 |
| 20260509235345 | 45 | 302 | 1.0 | 1.0 | 0.00 | 0.42 | 0.42 | 99 | 1011.4 |
| 20260509234841 | 45 | 311 | 0.0 | 0.0 | 0.00 | 0.42 | 0.42 | 99 | 1011.2 |
| 20260509234338 | 45 | 308 | 0.0 | 0.0 | 0.00 | 0.42 | 0.42 | 99 | 1011.3 |
| 20260509233836 | 45 | 307 | 0.0 | 0.0 | 0.00 | 0.42 | 0.42 | 99 | 1011.2 |
| 20260509233333 | 45 | 308 | 0.0 | 0.0 | 0.00 | 0.42 | 0.42 | 99 | 1011.2 |
| 20260509232829 | 45 | 308 | 0.0 | 0.0 | 0.00 | 0.42 | 0.42 | 99 | 1011.0 |
| 20260509232327 | 45 | 307 | 0.0 | 1.0 | 0.00 | 0.42 | 0.42 | 99 | 1011.2 |
| 20260509231823 | 45 | 300 | 3.0 | 3.0 | 0.00 | 0.42 | 0.42 | 99 | 1010.8 |
| 20260509231320 | 45 | 262 | 5.0 | 6.0 | 0.00 | 0.42 | 0.42 | 99 | 1011.0 |